UAE131 OMDB-UUDD

Flight info

Callsign UAE131
Flight time 6h 51m
Altitude 35000
Route IVURO M677 LALDO B505 BEDON J219 PG G325 ZB J145 REGET/N0480F360 N644 LEMOD B362 LBA A299 POGON/K0876F360 Y927 AKALI L985 LATNU M161 ARKER/K0902F380 M161 LEDGI M166 ARISA L736 OLOPI OLOPI3L
Aircraft B77W/H-SDE2E3FGHIJ3J5M1P2RWXYZ/LB1D1

Departure

Time 2026-04-25 10:23
Airport Dubai International Airport (OMDB)

Arrival

Time 2026-04-25 17:14
Airport Domodedovo International Airport (UUDD)
Time Latitude Longitude Altitude Speed Heading
2026-04-25 09:19 25.24803 55.36439 26 ft 0 kts 211°
2026-04-25 10:10 25.24805 55.36440 26 ft 3 kts 211°
2026-04-25 10:10 25.24828 55.36456 26 ft 4 kts 211°
2026-04-25 10:10 25.24849 55.36469 32 ft 2 kts 211°
2026-04-25 10:10 25.24870 55.36480 30 ft 4 kts 177°
2026-04-25 10:11 25.24894 55.36471 32 ft 4 kts 137°
2026-04-25 10:11 25.24910 55.36450 31 ft 4 kts 122°
2026-04-25 10:11 25.24924 55.36425 32 ft 3 kts 122°
2026-04-25 10:11 25.24925 55.36422 26 ft 0 kts 122°
2026-04-25 10:15 25.24918 55.36434 29 ft 5 kts 122°
2026-04-25 10:15 25.24885 55.36493 29 ft 13 kts 122°
2026-04-25 10:15 25.24830 55.36595 29 ft 16 kts 119°
2026-04-25 10:15 25.24787 55.36711 29 ft 16 kts 105°
2026-04-25 10:16 25.24759 55.36831 29 ft 16 kts 113°
2026-04-25 10:16 25.24706 55.36938 29 ft 16 kts 122°
2026-04-25 10:16 25.24645 55.37043 29 ft 16 kts 122°
2026-04-25 10:16 25.24584 55.37148 30 ft 16 kts 122°
2026-04-25 10:17 25.24545 55.37218 27 ft 16 kts 122°
2026-04-25 10:17 25.24466 55.37358 30 ft 16 kts 121°
2026-04-25 10:17 25.24407 55.37464 31 ft 16 kts 121°
2026-04-25 10:17 25.24347 55.37569 29 ft 16 kts 122°
2026-04-25 10:18 25.24310 55.37635 29 ft 15 kts 122°
2026-04-25 10:18 25.24265 55.37718 31 ft 10 kts 113°
2026-04-25 10:18 25.24287 55.37786 32 ft 10 kts 42°
2026-04-25 10:18 25.24341 55.37829 26 ft 9 kts 34°
2026-04-25 10:19 25.24390 55.37866 27 ft 9 kts 34°
2026-04-25 10:19 25.24440 55.37904 29 ft 9 kts 34°
2026-04-25 10:19 25.24492 55.37943 30 ft 9 kts 34°
2026-04-25 10:19 25.24558 55.37993 28 ft 13 kts 34°
2026-04-25 10:20 25.24623 55.38041 28 ft 6 kts 32°
2026-04-25 10:20 25.24635 55.38049 28 ft 0 kts 32°
2026-04-25 10:21 25.24636 55.38050 28 ft 1 kts 32°
2026-04-25 10:21 25.24666 55.38070 29 ft 7 kts 32°
2026-04-25 10:21 25.24706 55.38098 30 ft 7 kts 31°
2026-04-25 10:21 25.24752 55.38103 31 ft 7 kts 339°
2026-04-25 10:22 25.24785 55.38065 30 ft 7 kts 299°
2026-04-25 10:22 25.24885 55.37882 30 ft 62 kts 302°
2026-04-25 10:22 25.25243 55.37238 32 ft 132 kts 302°
2026-04-25 10:22 25.25821 55.36196 39 ft 185 kts 302°
2026-04-25 10:23 25.26497 55.34955 631 ft 184 kts 302°
2026-04-25 10:23 25.27165 55.33745 1287 ft 184 kts 302°
2026-04-25 10:23 25.27860 55.32496 1642 ft 200 kts 302°
2026-04-25 10:23 25.28634 55.31113 1957 ft 219 kts 303°
2026-04-25 10:24 25.29638 55.29864 2376 ft 226 kts 331°
2026-04-25 10:24 25.31186 55.29491 2943 ft 229 kts
2026-04-25 10:24 25.32768 55.29565 3441 ft 234 kts 359°
2026-04-25 10:24 25.34401 55.29600 4083 ft 234 kts 359°
2026-04-25 10:25 25.36030 55.29627 4799 ft 233 kts 359°
2026-04-25 10:25 25.37675 55.29663 5361 ft 238 kts 359°
2026-04-25 10:25 25.39336 55.29830 5840 ft 243 kts 16°
2026-04-25 10:25 25.40787 55.30878 6076 ft 263 kts 49°
2026-04-25 10:26 25.41924 55.32511 6284 ft 279 kts 50°
2026-04-25 10:26 25.43145 55.34226 6758 ft 288 kts 50°
2026-04-25 10:26 25.44408 55.35974 7350 ft 293 kts 50°
2026-04-25 10:26 25.45693 55.37745 7996 ft 297 kts 50°
2026-04-25 10:27 25.47002 55.39538 8665 ft 300 kts 50°
2026-04-25 10:27 25.48201 55.41391 9234 ft 302 kts 66°
2026-04-25 10:27 25.48578 55.43674 9698 ft 307 kts 98°
2026-04-25 10:27 25.48062 55.45956 10200 ft 308 kts 107°
2026-04-25 10:28 25.47466 55.48323 10382 ft 330 kts 106°
2026-04-25 10:28 25.46862 55.50864 10557 ft 353 kts 105°
2026-04-25 10:28 25.46237 55.53584 10721 ft 375 kts 105°
2026-04-25 10:28 25.45599 55.56444 11092 ft 388 kts 104°
2026-04-25 10:29 25.44955 55.59382 11724 ft 395 kts 104°
2026-04-25 10:29 25.44316 55.62325 12462 ft 400 kts 104°
2026-04-25 10:29 25.43667 55.65332 13301 ft 403 kts 104°
2026-04-25 10:29 25.43014 55.68359 14102 ft 405 kts 104°
2026-04-25 10:30 25.42357 55.71414 14781 ft 410 kts 105°
2026-04-25 10:30 25.41697 55.74470 15432 ft 414 kts 105°
2026-04-25 10:30 25.41023 55.77592 16110 ft 418 kts 105°
2026-04-25 10:30 25.40342 55.80745 16773 ft 423 kts 105°
2026-04-25 10:31 25.39652 55.83932 17421 ft 428 kts 105°
2026-04-25 10:31 25.38952 55.87157 18077 ft 432 kts 105°
2026-04-25 10:31 25.38247 55.90404 18729 ft 434 kts 106°
2026-04-25 10:31 25.37548 55.93628 19296 ft 438 kts 105°
2026-04-25 10:32 25.36826 55.96942 19787 ft 445 kts 105°
2026-04-25 10:32 25.36097 56.00297 20257 ft 451 kts 105°
2026-04-25 10:32 25.35359 56.03698 20750 ft 456 kts 105°
2026-04-25 10:32 25.34608 56.07130 21296 ft 461 kts 105°
2026-04-25 10:33 25.33860 56.10553 21800 ft 466 kts 105°
2026-04-25 10:33 25.33098 56.14059 22322 ft 470 kts 104°
2026-04-25 10:33 25.32521 56.17646 22812 ft 476 kts 97°
2026-04-25 10:33 25.32225 56.21316 23289 ft 481 kts 95°
2026-04-25 10:34 25.31963 56.24990 23704 ft 486 kts 95°
2026-04-25 10:34 25.31685 56.28725 24156 ft 489 kts 95°
2026-04-25 10:34 25.31385 56.32495 24633 ft 491 kts 95°
2026-04-25 10:34 25.31069 56.36264 25095 ft 494 kts 96°
2026-04-25 10:35 25.30765 56.40064 25539 ft 497 kts 94°
2026-04-25 10:35 25.30621 56.43900 25947 ft 500 kts 91°
2026-04-25 10:35 25.30539 56.47705 26347 ft 504 kts 91°
2026-04-25 10:35 25.30449 56.51585 26754 ft 507 kts 92°
2026-04-25 10:36 25.30287 56.55501 27149 ft 509 kts 96°
2026-04-25 10:36 25.29763 56.59386 27560 ft 511 kts 102°
2026-04-25 10:36 25.28896 56.63208 27965 ft 513 kts 107°
2026-04-25 10:36 25.27708 56.66927 28332 ft 514 kts 114°
2026-04-25 10:37 25.26323 56.70535 28660 ft 517 kts 114°
2026-04-25 10:37 25.24897 56.74195 28992 ft 520 kts 114°
2026-04-25 10:37 25.23461 56.77880 29328 ft 522 kts 114°
2026-04-25 10:37 25.22029 56.81584 29781 ft 522 kts 114°
2026-04-25 10:38 25.20613 56.85275 30245 ft 520 kts 114°
2026-04-25 10:38 25.19212 56.88949 30676 ft 519 kts 114°
2026-04-25 10:38 25.17836 56.92570 31051 ft 518 kts 114°
2026-04-25 10:38 25.16438 56.96247 31429 ft 518 kts 114°
2026-04-25 10:39 25.15038 56.99930 31791 ft 518 kts 114°
2026-04-25 10:39 25.13645 57.03587 32229 ft 516 kts 114°
2026-04-25 10:39 25.12257 57.07228 32648 ft 514 kts 114°
2026-04-25 10:39 25.10884 57.10822 33006 ft 514 kts 114°
2026-04-25 10:40 25.09491 57.14464 33324 ft 514 kts 114°
2026-04-25 10:40 25.08096 57.18110 33646 ft 515 kts 114°
2026-04-25 10:40 25.06701 57.21753 33990 ft 514 kts 114°
2026-04-25 10:40 25.05325 57.25342 34259 ft 514 kts 114°
2026-04-25 10:41 25.03928 57.28982 34487 ft 515 kts 114°
2026-04-25 10:41 25.02528 57.32630 34713 ft 516 kts 114°
2026-04-25 10:41 25.01120 57.36293 34802 ft 520 kts 114°
2026-04-25 10:42 24.98293 57.43640 34865 ft 518 kts 114°
2026-04-25 10:42 24.95514 57.50851 34859 ft 510 kts 114°
2026-04-25 10:43 24.92737 57.58043 34872 ft 510 kts 114°
2026-04-25 10:43 24.89957 57.65233 34868 ft 510 kts 114°
2026-04-25 10:44 24.87166 57.72441 34877 ft 510 kts 114°
2026-04-25 10:44 24.84475 57.79688 34863 ft 511 kts 108°
2026-04-25 10:45 24.82841 57.87249 34861 ft 511 kts 97°
2026-04-25 10:45 24.82192 57.95051 34871 ft 511 kts 94°
2026-04-25 10:46 24.81621 58.02876 34869 ft 512 kts 94°
2026-04-25 10:46 24.81009 58.10703 34865 ft 512 kts 94°
2026-04-25 10:47 24.80372 58.18490 34861 ft 513 kts 94°
2026-04-25 10:47 24.79722 58.26312 34852 ft 514 kts 95°
2026-04-25 10:48 24.79072 58.34112 34865 ft 515 kts 95°
2026-04-25 10:48 24.78413 58.41979 34864 ft 517 kts 95°
2026-04-25 10:49 24.77749 58.49873 34867 ft 518 kts 95°
2026-04-25 10:49 24.77079 58.57788 34859 ft 517 kts 95°
2026-04-25 10:50 24.76410 58.65631 34858 ft 517 kts 95°
2026-04-25 10:50 24.75735 58.73500 34858 ft 515 kts 95°
2026-04-25 10:51 24.75061 58.81309 34852 ft 514 kts 95°
2026-04-25 10:51 24.74379 58.89164 34854 ft 514 kts 95°
2026-04-25 10:52 24.73695 58.96991 34857 ft 513 kts 95°
2026-04-25 10:52 24.73012 59.04769 34866 ft 513 kts 95°
2026-04-25 10:53 24.72323 59.12555 34858 ft 509 kts 95°
2026-04-25 10:53 24.71644 59.20277 34846 ft 505 kts 95°
2026-04-25 10:54 24.70956 59.27943 34842 ft 502 kts 95°
2026-04-25 10:54 24.70268 59.35544 34847 ft 500 kts 95°
2026-04-25 10:55 24.69575 59.43165 34853 ft 500 kts 95°
2026-04-25 10:55 24.68888 59.50797 34853 ft 502 kts 95°
2026-04-25 10:56 24.68192 59.58424 34852 ft 504 kts 96°
2026-04-25 10:56 24.67482 59.66128 34847 ft 508 kts 96°
2026-04-25 10:57 24.66763 59.73882 34853 ft 511 kts 96°
2026-04-25 10:57 24.66037 59.81675 34853 ft 513 kts 96°
2026-04-25 10:58 24.65305 59.89504 34852 ft 514 kts 96°
2026-04-25 10:58 24.64574 59.97281 34848 ft 514 kts 96°
2026-04-25 10:59 24.63836 60.05081 34847 ft 512 kts 96°
2026-04-25 10:59 24.63096 60.12863 34843 ft 510 kts 96°
2026-04-25 11:00 24.62354 60.20622 34845 ft 508 kts 96°
2026-04-25 11:00 24.61615 60.28340 34843 ft 506 kts 96°
2026-04-25 11:01 24.60873 60.35987 34844 ft 505 kts 96°
2026-04-25 11:01 24.60127 60.43654 34845 ft 503 kts 96°
2026-04-25 11:02 24.59381 60.51295 34841 ft 502 kts 96°
2026-04-25 11:02 24.58634 60.58914 34843 ft 501 kts 96°
2026-04-25 11:03 24.58213 60.66516 34847 ft 500 kts 89°
2026-04-25 11:03 24.58259 60.74138 34846 ft 501 kts 89°
2026-04-25 11:04 24.58301 60.81810 34846 ft 502 kts 89°
2026-04-25 11:04 24.58306 60.88202 34843 ft 503 kts 89°
2026-04-25 11:05 24.58296 60.95900 34838 ft 504 kts 89°
2026-04-25 11:05 24.58282 61.03606 34844 ft 504 kts 89°
2026-04-25 11:06 24.58266 61.11313 34846 ft 504 kts 89°
2026-04-25 11:06 24.58247 61.18980 34842 ft 504 kts 89°
2026-04-25 11:07 24.58225 61.26696 34846 ft 504 kts 89°
2026-04-25 11:07 24.58976 61.34322 34840 ft 501 kts 76°
2026-04-25 11:08 24.61034 61.41570 34841 ft 499 kts 67°
2026-04-25 11:08 24.63633 61.48663 34842 ft 499 kts 66°
2026-04-25 11:09 24.66203 61.55697 34837 ft 499 kts 66°
2026-04-25 11:09 24.68759 61.62812 34843 ft 499 kts 67°
2026-04-25 11:10 24.71299 61.69949 34842 ft 499 kts 67°
2026-04-25 11:10 24.73813 61.77030 34838 ft 500 kts 67°
2026-04-25 11:11 24.76340 61.84155 34835 ft 500 kts 67°
2026-04-25 11:11 24.78871 61.91299 34841 ft 500 kts 67°
2026-04-25 11:12 24.81383 61.98403 34840 ft 500 kts 67°
2026-04-25 11:12 24.83907 62.05554 34832 ft 500 kts 67°
2026-04-25 11:13 24.86411 62.12659 34834 ft 500 kts 67°
2026-04-25 11:13 24.88925 62.19804 34832 ft 500 kts 67°
2026-04-25 11:14 24.91431 62.26942 34834 ft 499 kts 67°
2026-04-25 11:14 24.93938 62.34094 34829 ft 499 kts 67°
2026-04-25 11:15 24.96425 62.41201 34827 ft 499 kts 67°
2026-04-25 11:15 24.98922 62.48350 34830 ft 498 kts 67°
2026-04-25 11:16 25.02653 62.59055 34829 ft 499 kts 68°
2026-04-25 11:16 25.05124 62.66161 34827 ft 499 kts 68°
2026-04-25 11:17 25.07610 62.73322 34828 ft 499 kts 68°
2026-04-25 11:17 25.10082 62.80456 34822 ft 500 kts 68°
2026-04-25 11:18 25.12572 62.87655 34826 ft 501 kts 68°
2026-04-25 11:18 25.15058 62.94853 34826 ft 502 kts 68°
2026-04-25 11:19 25.17530 63.02028 34827 ft 503 kts 68°
2026-04-25 11:19 25.20020 63.09265 34828 ft 503 kts 68°
2026-04-25 11:20 25.22502 63.16494 34827 ft 503 kts 68°
2026-04-25 11:20 25.24968 63.23689 34816 ft 503 kts 68°
2026-04-25 11:21 25.27553 63.30869 34806 ft 498 kts 59°
2026-04-25 11:21 25.29574 63.33951 34823 ft 493 kts 43°
2026-04-25 11:21 25.32169 63.36387 34831 ft 488 kts 31°
2026-04-25 11:22 25.35121 63.38100 34816 ft 482 kts 20°
2026-04-25 11:22 25.37218 63.39041 34834 ft 483 kts 19°
2026-04-25 11:22 25.44508 63.42300 34813 ft 487 kts 20°
2026-04-25 11:23 25.50750 63.45175 34821 ft 489 kts 20°
2026-04-25 11:23 25.57052 63.48131 34815 ft 491 kts 20°
2026-04-25 11:24 25.63332 63.51090 34813 ft 492 kts 20°
2026-04-25 11:24 25.69651 63.54067 34815 ft 492 kts 20°
2026-04-25 11:25 25.75938 63.57029 34811 ft 491 kts 20°
2026-04-25 11:25 25.82239 63.60001 34812 ft 490 kts 20°
2026-04-25 11:26 25.88526 63.62970 34818 ft 489 kts 20°
2026-04-25 11:26 25.94755 63.65916 34818 ft 489 kts 20°
2026-04-25 11:27 26.01007 63.68875 34818 ft 488 kts 20°
2026-04-25 11:27 26.06212 63.71329 34818 ft 488 kts 20°
2026-04-25 11:28 26.13515 63.74772 34828 ft 488 kts 20°
2026-04-25 11:28 26.19790 63.77734 34820 ft 489 kts 20°
2026-04-25 11:29 26.26024 63.80683 34828 ft 491 kts 20°
2026-04-25 11:29 26.32335 63.83672 34829 ft 492 kts 20°
2026-04-25 11:30 26.38643 63.86665 34827 ft 493 kts 20°
2026-04-25 11:30 26.44966 63.89669 34836 ft 493 kts 20°
2026-04-25 11:31 26.51251 63.92656 34828 ft 494 kts 20°
2026-04-25 11:31 26.57585 63.95670 34826 ft 493 kts 20°
2026-04-25 11:32 26.63900 63.98680 34826 ft 493 kts 20°
2026-04-25 11:32 26.70221 64.01696 34832 ft 492 kts 20°
2026-04-25 11:33 26.76498 64.04695 34836 ft 492 kts 20°
2026-04-25 11:33 26.82803 64.07711 34834 ft 492 kts 20°
2026-04-25 11:34 26.89077 64.10715 34838 ft 492 kts 20°
2026-04-25 11:34 26.95143 64.14337 34842 ft 497 kts 32°
2026-04-25 11:35 27.00442 64.19368 34847 ft 501 kts 43°
2026-04-25 11:35 27.05287 64.24993 34846 ft 502 kts 43°
2026-04-25 11:36 27.10105 64.30616 34846 ft 502 kts 43°
2026-04-25 11:36 27.14986 64.36255 34861 ft 503 kts 43°
2026-04-25 11:37 27.19886 64.41887 34851 ft 503 kts 43°
2026-04-25 11:37 27.24787 64.47521 34842 ft 503 kts 43°
2026-04-25 11:38 27.29653 64.53127 34847 ft 503 kts 43°
2026-04-25 11:38 27.34537 64.58762 34849 ft 502 kts 43°
2026-04-25 11:39 27.39420 64.64405 34849 ft 502 kts 43°
2026-04-25 11:39 27.44266 64.70012 34844 ft 502 kts 43°
2026-04-25 11:40 27.49142 64.75662 34846 ft 502 kts 43°
2026-04-25 11:40 27.54020 64.81322 34831 ft 502 kts 43°
2026-04-25 11:41 27.58858 64.86943 34833 ft 502 kts 43°
2026-04-25 11:41 27.63733 64.92615 34833 ft 503 kts 43°
2026-04-25 11:42 27.68576 64.98255 34833 ft 503 kts 43°
2026-04-25 11:42 27.73440 65.03930 34827 ft 503 kts 43°
2026-04-25 11:43 27.78311 65.09621 34827 ft 503 kts 43°
2026-04-25 11:43 27.83145 65.15275 34818 ft 502 kts 43°
2026-04-25 11:44 27.88009 65.20973 34820 ft 502 kts 43°
2026-04-25 11:44 27.92838 65.26638 34833 ft 502 kts 43°
2026-04-25 11:45 27.97679 65.32325 34820 ft 502 kts 43°
2026-04-25 11:45 28.02510 65.38008 34833 ft 502 kts 43°
2026-04-25 11:46 28.07353 65.43713 34833 ft 502 kts 43°
2026-04-25 11:46 28.12201 65.49424 34837 ft 502 kts 43°
2026-04-25 11:47 28.17012 65.55097 34830 ft 502 kts 43°
2026-04-25 11:47 28.21868 65.60832 34834 ft 502 kts 43°
2026-04-25 11:48 28.26672 65.66516 34840 ft 501 kts 43°
2026-04-25 11:48 28.31497 65.72235 34846 ft 500 kts 43°
2026-04-25 11:49 28.35500 65.76983 34869 ft 499 kts 43°
2026-04-25 11:49 28.41090 65.83623 34862 ft 499 kts 43°
2026-04-25 11:50 28.45074 65.88363 34885 ft 499 kts 43°
2026-04-25 11:50 28.49872 65.94079 34883 ft 498 kts 43°
2026-04-25 11:51 28.54653 65.99781 34912 ft 497 kts 43°
2026-04-25 11:51 28.59421 66.05477 34915 ft 497 kts 43°
2026-04-25 11:52 28.64165 66.11152 34934 ft 497 kts 43°
2026-04-25 11:52 28.68945 66.16877 34953 ft 497 kts 43°
2026-04-25 11:53 28.73681 66.22558 34937 ft 497 kts 43°
2026-04-25 11:53 28.78442 66.28279 34975 ft 497 kts 43°
2026-04-25 11:54 28.83209 66.34014 34957 ft 497 kts 43°
2026-04-25 11:55 28.90347 66.42616 34969 ft 497 kts 43°
2026-04-25 11:55 28.95077 66.48327 34967 ft 497 kts 43°
2026-04-25 11:56 28.99834 66.54079 34970 ft 497 kts 43°
2026-04-25 11:56 29.04563 66.59804 34976 ft 497 kts 43°
2026-04-25 11:57 29.09320 66.65552 34968 ft 496 kts 43°
2026-04-25 11:57 29.14068 66.71289 34970 ft 496 kts 43°
2026-04-25 11:58 29.18811 66.77033 34960 ft 496 kts 43°
2026-04-25 11:58 29.23520 66.82746 34955 ft 496 kts 43°
2026-04-25 11:59 29.28251 66.88495 34954 ft 496 kts 43°
2026-04-25 11:59 29.32959 66.94224 34934 ft 495 kts 43°
2026-04-25 12:00 29.40028 67.02842 34925 ft 493 kts 43°
2026-04-25 12:01 29.47080 67.11454 34941 ft 494 kts 43°
2026-04-25 12:01 29.51793 67.17224 34867 ft 495 kts 43°
2026-04-25 12:02 29.58833 67.25859 34840 ft 493 kts 43°
2026-04-25 12:02 29.63492 67.31582 34812 ft 492 kts 43°
2026-04-25 12:03 29.68178 67.37344 34816 ft 492 kts 43°
2026-04-25 12:03 29.72858 67.43113 34772 ft 492 kts 43°
2026-04-25 12:04 29.77512 67.48841 34794 ft 493 kts 43°
2026-04-25 12:04 29.82212 67.54614 34795 ft 493 kts 42°
2026-04-25 12:05 29.86913 67.60405 34777 ft 494 kts 41°
2026-04-25 12:05 29.91587 67.66159 34792 ft 494 kts 42°
2026-04-25 12:06 29.96278 67.71954 34787 ft 494 kts 42°
2026-04-25 12:06 30.00970 67.77765 34790 ft 494 kts 42°
2026-04-25 12:07 30.05632 67.83542 34839 ft 494 kts 42°
2026-04-25 12:07 30.10334 67.89365 34842 ft 493 kts 41°
2026-04-25 12:08 30.15042 67.95085 34909 ft 493 kts 41°
2026-04-25 12:08 30.19789 68.00842 34902 ft 494 kts 41°
2026-04-25 12:09 30.24504 68.06592 34893 ft 495 kts 41°
2026-04-25 12:09 30.29257 68.12412 34927 ft 495 kts 41°
2026-04-25 12:10 30.33947 68.18206 34918 ft 496 kts 41°
2026-04-25 12:10 30.38668 68.24055 34916 ft 496 kts 41°
2026-04-25 12:11 30.43390 68.29908 34922 ft 496 kts 41°
2026-04-25 12:11 30.48072 68.35719 34901 ft 496 kts 41°
2026-04-25 12:12 30.51994 68.40592 34920 ft 496 kts 41°
2026-04-25 12:12 30.57520 68.47469 34877 ft 497 kts 41°
2026-04-25 12:13 30.62210 68.53315 34883 ft 498 kts 41°
2026-04-25 12:13 30.66935 68.59214 34882 ft 498 kts 41°
2026-04-25 12:14 30.71656 68.65118 34875 ft 497 kts 41°
2026-04-25 12:14 30.76335 68.70979 34878 ft 496 kts 41°
2026-04-25 12:15 30.81028 68.76866 34872 ft 496 kts 41°
2026-04-25 12:15 30.85720 68.82759 34893 ft 496 kts 41°
2026-04-25 12:16 30.90390 68.88634 34885 ft 497 kts 41°
2026-04-25 12:16 30.95088 68.94553 34882 ft 498 kts 41°
2026-04-25 12:17 30.99791 69.00492 34889 ft 497 kts 41°
2026-04-25 12:17 31.04485 69.06425 34891 ft 498 kts 41°
2026-04-25 12:18 31.09168 69.12352 34896 ft 500 kts 41°
2026-04-25 12:18 31.13885 69.18334 34886 ft 500 kts 41°
2026-04-25 12:19 31.20965 69.27333 34885 ft 502 kts 41°
2026-04-25 12:20 31.25676 69.33329 34872 ft 503 kts 42°
2026-04-25 12:20 31.30412 69.39370 34871 ft 503 kts 42°
2026-04-25 12:21 31.35300 69.45177 34858 ft 496 kts 34°
2026-04-25 12:21 31.40821 69.49823 34866 ft 487 kts 25°
2026-04-25 12:22 31.46648 69.53865 34866 ft 486 kts 24°
2026-04-25 12:22 31.52462 69.57908 34865 ft 485 kts 24°
2026-04-25 12:23 31.58259 69.61987 34853 ft 484 kts 24°
2026-04-25 12:23 31.63981 69.66042 34864 ft 483 kts 24°
2026-04-25 12:24 31.69740 69.70132 34868 ft 483 kts 24°
2026-04-25 12:24 31.75501 69.74224 34851 ft 483 kts 24°
2026-04-25 12:25 31.80293 69.77633 34859 ft 483 kts 24°
2026-04-25 12:25 31.86997 69.82408 34854 ft 484 kts 24°
2026-04-25 12:26 31.92781 69.86534 34859 ft 486 kts 24°
2026-04-25 12:26 31.98518 69.90648 34854 ft 483 kts 24°
2026-04-25 12:27 32.04276 69.94764 34848 ft 483 kts 24°
2026-04-25 12:27 32.10046 69.98898 34850 ft 486 kts 24°
2026-04-25 12:28 32.15790 70.03018 34852 ft 487 kts 24°
2026-04-25 12:28 32.21587 70.07177 34839 ft 488 kts 24°
2026-04-25 12:29 32.27417 70.11380 34827 ft 491 kts 23°
2026-04-25 12:29 32.30430 70.13106 34836 ft 473 kts
2026-04-25 12:29 32.33608 70.13689 34844 ft 454 kts 352°
2026-04-25 12:29 32.36635 70.13162 34849 ft 439 kts 337°
2026-04-25 12:30 32.39456 70.11842 34946 ft 435 kts 328°
2026-04-25 12:30 32.42085 70.10072 35158 ft 431 kts 321°
2026-04-25 12:30 32.44303 70.07743 35439 ft 422 kts 307°
2026-04-25 12:30 32.46098 70.05048 35719 ft 422 kts 306°
2026-04-25 12:31 32.47888 70.02265 35788 ft 426 kts 306°
2026-04-25 12:31 32.51500 69.96666 35893 ft 426 kts 306°
2026-04-25 12:32 32.55126 69.91146 35914 ft 421 kts 306°
2026-04-25 12:32 32.58726 69.85713 35932 ft 420 kts 306°
2026-04-25 12:33 32.62336 69.80276 35922 ft 417 kts 306°
2026-04-25 12:33 32.65847 69.74863 35944 ft 415 kts 306°
2026-04-25 12:34 32.69427 69.69498 35942 ft 413 kts 306°
2026-04-25 12:34 32.72998 69.64130 35955 ft 413 kts 306°
2026-04-25 12:35 32.76534 69.58775 35997 ft 414 kts 306°
2026-04-25 12:35 32.80084 69.53382 35972 ft 413 kts 306°
2026-04-25 12:36 32.83632 69.47978 35973 ft 413 kts 306°
2026-04-25 12:36 32.86579 69.43489 35971 ft 413 kts 306°
2026-04-25 12:37 32.90673 69.37231 35981 ft 411 kts 306°
2026-04-25 12:37 32.93587 69.32764 35980 ft 410 kts 306°
2026-04-25 12:38 32.97077 69.27405 36008 ft 408 kts 306°
2026-04-25 12:38 33.00565 69.22041 36005 ft 410 kts 306°
2026-04-25 12:39 33.04057 69.16665 35997 ft 412 kts 306°
2026-04-25 12:39 33.07571 69.11247 36008 ft 412 kts 306°
2026-04-25 12:40 33.11064 69.05858 36011 ft 412 kts 306°
2026-04-25 12:40 33.14566 69.00442 35999 ft 411 kts 306°
2026-04-25 12:41 33.18059 68.95030 36003 ft 411 kts 305°
2026-04-25 12:41 33.21549 68.89617 35994 ft 411 kts 305°
2026-04-25 12:42 33.25019 68.84228 35970 ft 410 kts 305°
2026-04-25 12:42 33.28530 68.78849 35973 ft 409 kts 307°
2026-04-25 12:43 33.32204 68.73696 35975 ft 408 kts 308°
2026-04-25 12:43 33.37770 68.65952 35987 ft 408 kts 308°
2026-04-25 12:44 33.41461 68.60780 35982 ft 408 kts 308°
2026-04-25 12:45 33.46974 68.53031 35986 ft 408 kts 308°
2026-04-25 12:45 33.52484 68.45271 36007 ft 407 kts 307°
2026-04-25 12:46 33.56113 68.40126 36030 ft 406 kts 307°
2026-04-25 12:46 33.59701 68.34876 36026 ft 405 kts 307°
2026-04-25 12:47 33.63250 68.29650 36051 ft 406 kts 307°
2026-04-25 12:47 33.66826 68.24388 36050 ft 407 kts 307°
2026-04-25 12:48 33.70426 68.19095 36076 ft 408 kts 307°
2026-04-25 12:48 33.73995 68.13841 36106 ft 409 kts 307°
2026-04-25 12:49 33.77598 68.08527 36078 ft 409 kts 307°
2026-04-25 12:49 33.81192 68.03229 36089 ft 405 kts 307°
2026-04-25 12:50 33.84746 67.97971 36093 ft 405 kts 307°
2026-04-25 12:50 33.88277 67.92740 36117 ft 405 kts 307°
2026-04-25 12:51 33.91831 67.87469 36122 ft 405 kts 307°
2026-04-25 12:51 33.95399 67.82171 36129 ft 406 kts 307°
2026-04-25 12:52 33.98937 67.76903 36140 ft 407 kts 306°
2026-04-25 12:52 34.02482 67.71555 36128 ft 407 kts 306°
2026-04-25 12:53 34.06006 67.66218 36124 ft 405 kts 306°
2026-04-25 12:53 34.09496 67.60927 36137 ft 406 kts 306°
2026-04-25 12:54 34.13034 67.55555 36146 ft 407 kts 306°
2026-04-25 12:54 34.16558 67.50200 36161 ft 407 kts 306°
2026-04-25 12:55 34.19478 67.45729 36129 ft 409 kts 306°
2026-04-25 12:55 34.23601 67.39469 36139 ft 409 kts 306°
2026-04-25 12:56 34.27136 67.34084 36130 ft 408 kts 306°
2026-04-25 12:56 34.30654 67.28707 36141 ft 406 kts 306°
2026-04-25 12:57 34.34134 67.23379 36122 ft 405 kts 306°
2026-04-25 12:57 34.37625 67.18029 36141 ft 403 kts 306°
2026-04-25 12:58 34.41104 67.12680 36126 ft 405 kts 306°
2026-04-25 12:58 34.44565 67.07361 36140 ft 403 kts 306°
2026-04-25 12:59 34.48037 67.02016 36142 ft 402 kts 306°
2026-04-25 12:59 34.51500 66.96673 36182 ft 404 kts 306°
2026-04-25 13:00 34.53808 66.93108 36145 ft 404 kts 306°
2026-04-25 13:00 34.58409 66.85977 36150 ft 401 kts 306°
2026-04-25 13:01 34.61835 66.80647 36151 ft 399 kts 306°
2026-04-25 13:01 34.65238 66.75345 36166 ft 398 kts 306°
2026-04-25 13:02 34.68643 66.70033 36184 ft 398 kts 306°
2026-04-25 13:02 34.72032 66.64739 36170 ft 399 kts 306°
2026-04-25 13:03 34.75426 66.59429 36164 ft 399 kts 306°
2026-04-25 13:03 34.78840 66.54082 36161 ft 400 kts 304°
2026-04-25 13:04 34.82270 66.48697 36182 ft 403 kts 306°
2026-04-25 13:04 34.85705 66.43297 36173 ft 406 kts 305°
2026-04-25 13:05 34.89175 66.37834 36186 ft 406 kts 306°
2026-04-25 13:05 34.92606 66.32427 36183 ft 403 kts 306°
2026-04-25 13:06 34.96030 66.27023 36201 ft 401 kts 306°
2026-04-25 13:06 34.99407 66.21665 36192 ft 395 kts 305°
2026-04-25 13:07 35.02748 66.16320 36153 ft 395 kts 305°
2026-04-25 13:07 35.06090 66.10964 36213 ft 403 kts 305°
2026-04-25 13:08 35.09508 66.05475 36196 ft 405 kts 305°
2026-04-25 13:08 35.12924 65.99987 36192 ft 405 kts 305°
2026-04-25 13:09 35.16333 65.94510 36180 ft 404 kts 305°
2026-04-25 13:09 35.19708 65.89077 36175 ft 403 kts 304°
2026-04-25 13:10 35.23106 65.83594 36187 ft 402 kts 304°
2026-04-25 13:10 35.26465 65.78167 36175 ft 402 kts 304°
2026-04-25 13:11 35.29830 65.72721 36167 ft 399 kts 304°
2026-04-25 13:11 35.33175 65.67301 36171 ft 399 kts 304°
2026-04-25 13:12 35.36500 65.61902 36174 ft 399 kts 304°
2026-04-25 13:12 35.39310 65.57334 36168 ft 401 kts 304°
2026-04-25 13:13 35.43234 65.50943 36153 ft 403 kts 304°
2026-04-25 13:13 35.46595 65.45464 36150 ft 403 kts 304°
2026-04-25 13:14 35.49964 65.39960 36137 ft 403 kts 304°
2026-04-25 13:14 35.53334 65.34446 36127 ft 403 kts 304°
2026-04-25 13:15 35.56707 65.28919 36120 ft 405 kts 303°
2026-04-25 13:15 35.60096 65.23359 36094 ft 405 kts 303°
2026-04-25 13:16 35.63452 65.17841 36091 ft 405 kts 303°
2026-04-25 13:16 35.66839 65.12263 36090 ft 407 kts 303°
2026-04-25 13:17 35.70202 65.06719 36061 ft 407 kts 303°
2026-04-25 13:17 35.73598 65.01117 36078 ft 407 kts 303°
2026-04-25 13:18 35.76982 64.95510 36024 ft 407 kts 302°
2026-04-25 13:18 35.80343 64.89936 36040 ft 406 kts 303°
2026-04-25 13:19 35.83721 64.84332 36015 ft 405 kts 302°
2026-04-25 13:19 35.85942 64.80643 36017 ft 405 kts 302°
2026-04-25 13:20 35.90423 64.73179 36000 ft 407 kts 302°
2026-04-25 13:20 35.93796 64.67551 35990 ft 408 kts 302°
2026-04-25 13:21 35.97179 64.61900 35983 ft 409 kts 302°
2026-04-25 13:21 36.00541 64.56274 35980 ft 409 kts 302°
2026-04-25 13:22 36.03925 64.50602 35963 ft 409 kts 302°
2026-04-25 13:23 36.08952 64.42159 35954 ft 407 kts 302°
2026-04-25 13:23 36.12315 64.36498 35956 ft 407 kts 302°
2026-04-25 13:24 36.16130 64.31360 35957 ft 418 kts 318°
2026-04-25 13:24 36.20438 64.28381 35956 ft 433 kts 330°
2026-04-25 13:24 36.24382 64.27104 35981 ft 447 kts 340°
2026-04-25 13:25 36.27456 64.26427 35940 ft 450 kts 341°
2026-04-25 13:25 36.32605 64.25348 35953 ft 450 kts 341°
2026-04-25 13:26 36.38785 64.24007 35948 ft 449 kts 341°
2026-04-25 13:26 36.44893 64.22623 35973 ft 448 kts 340°
2026-04-25 13:27 36.51026 64.21207 35951 ft 446 kts 340°
2026-04-25 13:27 36.57098 64.19800 35946 ft 444 kts 340°
2026-04-25 13:28 36.63173 64.18392 35926 ft 443 kts 340°
2026-04-25 13:28 36.69194 64.16996 35932 ft 441 kts 340°
2026-04-25 13:29 36.75237 64.15592 35929 ft 440 kts 340°
2026-04-25 13:29 36.81252 64.14192 35932 ft 439 kts 340°
2026-04-25 13:30 36.90243 64.12094 35935 ft 439 kts 340°
2026-04-25 13:31 36.99276 64.09984 35917 ft 439 kts 340°
2026-04-25 13:31 37.05258 64.08583 35914 ft 439 kts 340°
2026-04-25 13:32 37.11274 64.07171 35907 ft 440 kts 340°
2026-04-25 13:32 37.17307 64.05753 35905 ft 440 kts 340°
2026-04-25 13:33 37.23299 64.04343 35888 ft 441 kts 340°
2026-04-25 13:33 37.29363 64.02914 35915 ft 443 kts 340°
2026-04-25 13:34 37.35441 64.01479 35908 ft 445 kts 340°
2026-04-25 13:34 37.41519 63.99938 35901 ft 445 kts 339°
2026-04-25 13:35 37.47582 63.98286 35894 ft 445 kts 338°
2026-04-25 13:35 37.53616 63.96641 35901 ft 446 kts 339°
2026-04-25 13:36 37.59710 63.94995 35897 ft 447 kts 339°
2026-04-25 13:36 37.65787 63.93358 35899 ft 446 kts 339°
2026-04-25 13:37 37.71836 63.91728 35910 ft 446 kts 339°
2026-04-25 13:37 37.77915 63.90086 35900 ft 445 kts 339°
2026-04-25 13:38 37.83948 63.88454 35897 ft 445 kts 339°
2026-04-25 13:38 37.90006 63.86811 35932 ft 444 kts 339°
2026-04-25 13:39 37.96067 63.85165 35899 ft 444 kts 339°
2026-04-25 13:39 38.02085 63.83527 35901 ft 444 kts 339°
2026-04-25 13:40 38.08135 63.81879 35902 ft 444 kts 339°
2026-04-25 13:40 38.14191 63.80226 35902 ft 444 kts 339°
2026-04-25 13:41 38.20208 63.78580 35907 ft 444 kts 339°
2026-04-25 13:41 38.26234 63.76930 35906 ft 444 kts 339°
2026-04-25 13:42 38.32293 63.75268 35917 ft 445 kts 339°
2026-04-25 13:42 38.38349 63.73603 35898 ft 445 kts 339°
2026-04-25 13:43 38.44423 63.71931 35899 ft 446 kts 339°
2026-04-25 13:43 38.50507 63.70253 35915 ft 447 kts 339°
2026-04-25 13:44 38.56578 63.68575 35906 ft 448 kts 339°
2026-04-25 13:44 38.62679 63.66888 35905 ft 449 kts 339°
2026-04-25 13:45 38.68793 63.65193 35927 ft 449 kts 339°
2026-04-25 13:45 38.74870 63.63506 35911 ft 449 kts 339°
2026-04-25 13:46 38.80999 63.61801 35903 ft 450 kts 339°
2026-04-25 13:46 38.87121 63.60066 35907 ft 447 kts 336°
2026-04-25 13:47 38.92784 63.57237 35915 ft 435 kts 326°
2026-04-25 13:47 38.97888 63.53231 35918 ft 428 kts 319°
2026-04-25 13:48 39.02772 63.48812 35915 ft 429 kts 318°
2026-04-25 13:48 39.07663 63.44379 35909 ft 431 kts 318°
2026-04-25 13:49 39.12549 63.39977 35915 ft 432 kts 318°
2026-04-25 13:49 39.17502 63.35523 35906 ft 433 kts 318°
2026-04-25 13:50 39.22451 63.31068 35911 ft 434 kts 318°
2026-04-25 13:50 39.27374 63.26628 35897 ft 434 kts 318°
2026-04-25 13:51 39.32334 63.22147 35888 ft 434 kts 318°
2026-04-25 13:51 39.37294 63.17657 35890 ft 434 kts 318°
2026-04-25 13:52 39.42215 63.13193 35902 ft 435 kts 318°
2026-04-25 13:52 39.47176 63.08687 35899 ft 434 kts 318°
2026-04-25 13:53 39.52101 63.04204 35890 ft 435 kts 318°
2026-04-25 13:53 39.57048 62.99695 35899 ft 435 kts 318°
2026-04-25 13:54 39.62014 62.95159 35890 ft 436 kts 318°
2026-04-25 13:54 39.66954 62.90638 35904 ft 436 kts 318°
2026-04-25 13:55 39.71915 62.86091 35921 ft 437 kts 318°
2026-04-25 13:55 39.76864 62.81546 35891 ft 437 kts 317°
2026-04-25 13:56 39.81928 62.77084 35888 ft 444 kts 323°
2026-04-25 13:56 39.87606 62.73780 35891 ft 454 kts 333°
2026-04-25 13:57 39.93794 62.71639 35898 ft 462 kts 339°
2026-04-25 13:57 40.00091 62.69783 35885 ft 463 kts 339°
2026-04-25 13:58 40.06344 62.67912 35887 ft 462 kts 339°
2026-04-25 13:58 40.12612 62.65991 35894 ft 462 kts 338°
2026-04-25 13:59 40.18876 62.64052 35889 ft 462 kts 338°
2026-04-25 13:59 40.25131 62.62111 35906 ft 462 kts 338°
2026-04-25 14:00 40.29284 62.60822 35897 ft 462 kts 339°
2026-04-25 14:00 40.37629 62.58227 35883 ft 462 kts 338°
2026-04-25 14:01 40.43860 62.56285 35913 ft 462 kts 339°
2026-04-25 14:01 40.50120 62.54331 35892 ft 462 kts 339°
2026-04-25 14:02 40.56386 62.52371 35879 ft 462 kts 338°
2026-04-25 14:02 40.62620 62.50416 35895 ft 462 kts 338°
2026-04-25 14:03 40.68880 62.48428 35885 ft 463 kts 338°
2026-04-25 14:03 40.75116 62.46402 35891 ft 464 kts 338°
2026-04-25 14:04 40.81406 62.44377 35895 ft 465 kts 338°
2026-04-25 14:04 40.87681 62.42390 35885 ft 465 kts 338°
2026-04-25 14:05 40.93999 62.40384 35886 ft 465 kts 338°
2026-04-25 14:05 41.00267 62.38384 35893 ft 466 kts 338°
2026-04-25 14:06 41.06572 62.36371 35884 ft 465 kts 338°
2026-04-25 14:06 41.12868 62.34358 35885 ft 465 kts 338°
2026-04-25 14:07 41.19125 62.32352 35892 ft 464 kts 338°
2026-04-25 14:07 41.25422 62.30329 35880 ft 464 kts 338°
2026-04-25 14:08 41.31664 62.28320 35883 ft 464 kts 338°
2026-04-25 14:08 41.37955 62.26290 35891 ft 464 kts 338°
2026-04-25 14:09 41.44251 62.24255 35885 ft 465 kts 338°
2026-04-25 14:09 41.50504 62.22230 35891 ft 465 kts 338°
2026-04-25 14:10 41.56810 62.20184 35892 ft 466 kts 338°
2026-04-25 14:10 41.63088 62.18142 35889 ft 467 kts 338°
2026-04-25 14:11 41.69410 62.16082 35887 ft 467 kts 338°
2026-04-25 14:11 41.75733 62.14019 35887 ft 468 kts 338°
2026-04-25 14:12 41.82074 62.11945 35888 ft 468 kts 338°
2026-04-25 14:12 41.88407 62.09869 35897 ft 468 kts 338°
2026-04-25 14:13 41.94709 62.07800 35889 ft 469 kts 338°
2026-04-25 14:13 41.99993 62.06057 35885 ft 469 kts 338°
2026-04-25 14:14 42.06331 62.03959 35895 ft 469 kts 338°
2026-04-25 14:14 42.12678 62.01854 35890 ft 469 kts 338°
2026-04-25 14:15 42.19028 61.99745 35880 ft 469 kts 338°
2026-04-25 14:15 42.25336 61.97645 35893 ft 469 kts 338°
2026-04-25 14:16 42.31679 61.95528 35890 ft 469 kts 338°
2026-04-25 14:16 42.37995 61.93416 35883 ft 469 kts 338°
2026-04-25 14:17 42.44345 61.91288 35878 ft 470 kts 338°
2026-04-25 14:17 42.50706 61.89152 35872 ft 471 kts 338°
2026-04-25 14:18 42.57075 61.87010 35875 ft 471 kts 338°
2026-04-25 14:18 42.63416 61.84872 35884 ft 472 kts 338°
2026-04-25 14:19 42.69803 61.82715 35874 ft 472 kts 338°
2026-04-25 14:19 42.76162 61.80562 35892 ft 472 kts 338°
2026-04-25 14:20 42.82569 61.78388 35872 ft 473 kts 338°
2026-04-25 14:20 42.88918 61.76229 35866 ft 473 kts 338°
2026-04-25 14:21 42.95332 61.74044 35896 ft 474 kts 337°
2026-04-25 14:21 43.01725 61.71861 35870 ft 474 kts 337°
2026-04-25 14:22 43.08149 61.69663 35857 ft 474 kts 337°
2026-04-25 14:22 43.14548 61.67468 35873 ft 474 kts 337°
2026-04-25 14:23 43.20924 61.65277 35861 ft 474 kts 337°
2026-04-25 14:23 43.27328 61.63071 35859 ft 474 kts 337°
2026-04-25 14:24 43.33731 61.60862 35870 ft 475 kts 337°
2026-04-25 14:24 43.40154 61.58639 35854 ft 475 kts 337°
2026-04-25 14:25 43.46521 61.56432 35859 ft 475 kts 337°
2026-04-25 14:25 43.52954 61.54197 35850 ft 475 kts 337°
2026-04-25 14:26 43.59372 61.51962 35846 ft 475 kts 337°
2026-04-25 14:26 43.65749 61.49737 35848 ft 475 kts 337°
2026-04-25 14:27 43.72163 61.47493 35845 ft 476 kts 337°
2026-04-25 14:27 43.78587 61.45241 35841 ft 476 kts 337°
2026-04-25 14:28 43.85010 61.42985 35837 ft 475 kts 337°
2026-04-25 14:28 43.91430 61.40725 35841 ft 476 kts 336°
2026-04-25 14:29 43.97825 61.38467 35837 ft 476 kts 336°
2026-04-25 14:29 44.04248 61.36196 35833 ft 475 kts 336°
2026-04-25 14:30 44.10654 61.33997 35830 ft 481 kts 340°
2026-04-25 14:30 44.17399 61.33155 35842 ft 495 kts 352°
2026-04-25 14:30 44.20869 61.33427 35834 ft 502 kts 357°
2026-04-25 14:31 44.27839 61.34444 35872 ft 503 kts 358°
2026-04-25 14:31 44.34830 61.35505 35834 ft 504 kts 357°
2026-04-25 14:32 44.41772 61.36488 35831 ft 504 kts 357°
2026-04-25 14:32 44.48745 61.37443 35830 ft 505 kts 357°
2026-04-25 14:33 44.55756 61.38402 35834 ft 506 kts 357°
2026-04-25 14:33 44.62778 61.39372 35840 ft 507 kts 357°
2026-04-25 14:34 44.69767 61.40341 35839 ft 507 kts 357°
2026-04-25 14:34 44.76801 61.41317 35846 ft 508 kts 357°
2026-04-25 14:35 44.83850 61.42291 35845 ft 505 kts 355°
2026-04-25 14:35 44.87290 61.42148 35838 ft 484 kts 339°
2026-04-25 14:35 44.90454 61.40810 35854 ft 465 kts 326°
2026-04-25 14:36 44.93225 61.38686 35888 ft 453 kts 315°
2026-04-25 14:36 44.95598 61.35876 35867 ft 443 kts 307°
2026-04-25 14:36 45.00195 61.29956 35857 ft 450 kts 308°
2026-04-25 14:37 45.04895 61.24025 35850 ft 450 kts 309°
2026-04-25 14:37 45.09519 61.18243 35882 ft 442 kts 308°
2026-04-25 14:38 45.14143 61.12436 35860 ft 444 kts 308°
2026-04-25 14:38 45.18764 61.06614 35855 ft 445 kts 308°
2026-04-25 14:39 45.23372 61.00798 35849 ft 446 kts 308°
2026-04-25 14:39 45.27986 60.94963 35865 ft 447 kts 308°
2026-04-25 14:40 45.32643 60.89060 35860 ft 448 kts 308°
2026-04-25 14:40 45.37309 60.83132 35852 ft 449 kts 308°
2026-04-25 14:41 45.41940 60.77236 35854 ft 449 kts 308°
2026-04-25 14:41 45.46599 60.71290 35858 ft 449 kts 308°
2026-04-25 14:42 45.49678 60.67352 35856 ft 448 kts 308°
2026-04-25 14:42 45.55857 60.59429 35861 ft 448 kts 308°
2026-04-25 14:43 45.60493 60.53467 35886 ft 449 kts 307°
2026-04-25 14:43 45.65115 60.47508 35873 ft 449 kts 307°
2026-04-25 14:44 45.69756 60.41513 35869 ft 449 kts 307°
2026-04-25 14:44 45.74392 60.35511 35859 ft 449 kts 307°
2026-04-25 14:45 45.78999 60.29531 35884 ft 450 kts 307°
2026-04-25 14:45 45.83650 60.23479 35879 ft 450 kts 307°
2026-04-25 14:46 45.88297 60.17419 35879 ft 451 kts 307°
2026-04-25 14:46 45.92935 60.11357 35905 ft 451 kts 307°
2026-04-25 14:47 45.96020 60.07316 35897 ft 452 kts 307°
2026-04-25 14:47 46.02216 59.99180 35895 ft 453 kts 307°
2026-04-25 14:48 46.06852 59.93078 35905 ft 453 kts 307°
2026-04-25 14:48 46.11514 59.86925 35911 ft 455 kts 307°
2026-04-25 14:49 46.16187 59.80742 35908 ft 456 kts 307°
2026-04-25 14:49 46.20840 59.74575 35935 ft 456 kts 307°
2026-04-25 14:50 46.25475 59.68289 35960 ft 454 kts 305°
2026-04-25 14:50 46.29936 59.61863 35938 ft 455 kts 304°
2026-04-25 14:51 46.34410 59.55365 35938 ft 456 kts 304°
2026-04-25 14:51 46.38923 59.48840 35938 ft 457 kts 304°
2026-04-25 14:52 46.43437 59.42325 35943 ft 459 kts 305°
2026-04-25 14:52 46.47181 59.36915 35950 ft 459 kts 305°
2026-04-25 14:53 46.52485 59.29232 35947 ft 460 kts 304°
2026-04-25 14:53 46.56983 59.22698 35948 ft 460 kts 304°
2026-04-25 14:54 46.61522 59.16084 35961 ft 462 kts 305°
2026-04-25 14:54 46.66042 59.09484 35950 ft 462 kts 305°
2026-04-25 14:55 46.70585 59.02834 35953 ft 462 kts 305°
2026-04-25 14:55 46.75120 58.96176 35988 ft 463 kts 306°
2026-04-25 14:56 46.79633 58.89533 35974 ft 464 kts 306°
2026-04-25 14:56 46.84186 58.82818 35977 ft 464 kts 306°
2026-04-25 14:57 46.88740 58.76083 35974 ft 464 kts 305°
2026-04-25 14:57 46.93256 58.69385 35988 ft 466 kts 306°
2026-04-25 14:58 46.97812 58.62613 35970 ft 466 kts 306°
2026-04-25 14:58 47.02364 58.55830 35980 ft 466 kts 306°
2026-04-25 14:59 47.06898 58.49054 35976 ft 466 kts 306°
2026-04-25 14:59 47.11416 58.42284 35973 ft 466 kts 306°
2026-04-25 15:00 47.15950 58.35473 35994 ft 465 kts 306°
2026-04-25 15:00 47.20462 58.28677 36009 ft 465 kts 306°
2026-04-25 15:01 47.24227 58.22991 36007 ft 466 kts 306°
2026-04-25 15:01 47.29495 58.15020 35981 ft 466 kts 306°
2026-04-25 15:02 47.33264 58.09308 35977 ft 466 kts 306°
2026-04-25 15:02 47.38523 58.01324 35979 ft 465 kts 306°
2026-04-25 15:03 47.42305 57.95565 35984 ft 466 kts 306°
2026-04-25 15:03 47.46797 57.88707 35976 ft 466 kts 306°
2026-04-25 15:04 47.51315 57.81794 35979 ft 466 kts 306°
2026-04-25 15:04 47.55792 57.74922 35979 ft 466 kts 306°
2026-04-25 15:05 47.60298 57.67987 35979 ft 468 kts 306°
2026-04-25 15:06 47.67079 57.57515 35960 ft 468 kts 306°
2026-04-25 15:06 47.71552 57.50569 35971 ft 468 kts 306°
2026-04-25 15:07 47.76061 57.43546 35965 ft 468 kts 306°
2026-04-25 15:07 47.80529 57.36570 35965 ft 468 kts 306°
2026-04-25 15:08 47.85018 57.29546 35954 ft 468 kts 306°
2026-04-25 15:08 47.89504 57.22505 35993 ft 468 kts 306°
2026-04-25 15:09 47.93994 57.15438 35964 ft 468 kts 306°
2026-04-25 15:09 48.00681 57.04879 35953 ft 468 kts 306°
2026-04-25 15:10 48.05149 56.97801 35949 ft 467 kts 306°
2026-04-25 15:11 48.11820 56.87194 35955 ft 468 kts 306°
2026-04-25 15:11 48.16286 56.80071 35950 ft 468 kts 306°
2026-04-25 15:12 48.22954 56.69396 36032 ft 472 kts 307°
2026-04-25 15:12 48.25208 56.65775 36272 ft 473 kts 307°
2026-04-25 15:12 48.26697 56.63383 36462 ft 473 kts 307°
2026-04-25 15:13 48.29697 56.58559 36912 ft 471 kts 307°
2026-04-25 15:13 48.34136 56.51402 37503 ft 471 kts 307°
2026-04-25 15:13 48.36368 56.47795 37750 ft 471 kts 307°
2026-04-25 15:14 48.38604 56.44174 37879 ft 474 kts 307°
2026-04-25 15:14 48.43119 56.36850 37946 ft 477 kts 307°
2026-04-25 15:15 48.47612 56.29550 37945 ft 471 kts 307°
2026-04-25 15:15 48.52022 56.22358 37953 ft 468 kts 307°
2026-04-25 15:16 48.56440 56.15135 37984 ft 467 kts 307°
2026-04-25 15:16 48.63039 56.04316 37965 ft 469 kts 307°
2026-04-25 15:17 48.69681 55.93383 37949 ft 470 kts 307°
2026-04-25 15:18 48.74097 55.86116 37961 ft 471 kts 307°
2026-04-25 15:18 48.80776 55.75100 37962 ft 472 kts 307°
2026-04-25 15:19 48.84471 55.68982 37958 ft 473 kts 307°
2026-04-25 15:19 48.89643 55.60370 37993 ft 473 kts 307°
2026-04-25 15:20 48.94049 55.52992 37966 ft 473 kts 307°
2026-04-25 15:20 48.98470 55.45571 37960 ft 472 kts 307°
2026-04-25 15:21 49.02880 55.38151 37958 ft 471 kts 307°
2026-04-25 15:21 49.07268 55.30745 37991 ft 469 kts 307°
2026-04-25 15:22 49.11614 55.23387 37960 ft 468 kts 307°
2026-04-25 15:22 49.15966 55.16005 37958 ft 466 kts 307°
2026-04-25 15:23 49.20292 55.08641 37961 ft 465 kts 307°
2026-04-25 15:23 49.24591 55.01300 37983 ft 465 kts 307°
2026-04-25 15:24 49.28902 54.93916 37967 ft 464 kts 307°
2026-04-25 15:24 49.32489 54.87756 37962 ft 464 kts 307°
2026-04-25 15:25 49.37492 54.79141 37960 ft 464 kts 307°
2026-04-25 15:25 49.41800 54.71699 37968 ft 465 kts 307°
2026-04-25 15:26 49.46085 54.64277 37961 ft 465 kts 307°
2026-04-25 15:26 49.50379 54.56818 37954 ft 465 kts 307°
2026-04-25 15:27 49.54646 54.49383 37954 ft 465 kts 307°
2026-04-25 15:28 49.61082 54.38130 37961 ft 465 kts 307°
2026-04-25 15:28 49.65336 54.30666 37951 ft 465 kts 307°
2026-04-25 15:29 49.69593 54.23174 37950 ft 465 kts 307°
2026-04-25 15:29 49.73853 54.15654 37983 ft 464 kts 307°
2026-04-25 15:30 49.78103 54.08130 37960 ft 464 kts 307°
2026-04-25 15:30 49.82359 54.00574 37956 ft 464 kts 307°
2026-04-25 15:31 49.86577 53.93064 37951 ft 463 kts 307°
2026-04-25 15:31 49.90810 53.85508 37978 ft 463 kts 307°
2026-04-25 15:32 49.95008 53.77988 37954 ft 463 kts 307°
2026-04-25 15:32 49.99217 53.70427 37958 ft 462 kts 307°
2026-04-25 15:33 50.05505 53.59089 37955 ft 462 kts 307°
2026-04-25 15:33 50.09699 53.51496 37957 ft 462 kts 307°
2026-04-25 15:34 50.13894 53.43882 37942 ft 462 kts 307°
2026-04-25 15:34 50.16670 53.38831 37943 ft 462 kts 307°
2026-04-25 15:35 50.24325 53.24851 37944 ft 461 kts 307°
2026-04-25 15:36 50.30554 53.13419 37936 ft 461 kts 307°
2026-04-25 15:36 50.34716 53.05752 37934 ft 461 kts 307°
2026-04-25 15:37 50.38846 52.98122 37928 ft 460 kts 307°
2026-04-25 15:37 50.42981 52.90460 37928 ft 460 kts 307°
2026-04-25 15:38 50.47113 52.82779 37925 ft 460 kts 307°
2026-04-25 15:38 50.51239 52.75089 37924 ft 460 kts 307°
2026-04-25 15:39 50.55341 52.67419 37923 ft 460 kts 307°
2026-04-25 15:39 50.59457 52.59699 37926 ft 460 kts 307°
2026-04-25 15:40 50.62187 52.54568 37927 ft 460 kts 307°
2026-04-25 15:40 50.67654 52.44262 37916 ft 459 kts 307°
2026-04-25 15:41 50.71742 52.36560 37909 ft 459 kts 307°
2026-04-25 15:41 50.75866 52.28832 37926 ft 459 kts 307°
2026-04-25 15:42 50.79973 52.21114 37911 ft 458 kts 307°
2026-04-25 15:42 50.84070 52.13380 37909 ft 458 kts 307°
2026-04-25 15:43 50.88128 52.05694 37891 ft 457 kts 307°
2026-04-25 15:43 50.92199 51.97961 37911 ft 456 kts 307°
2026-04-25 15:44 50.96259 51.90224 37896 ft 456 kts 307°
2026-04-25 15:44 51.00314 51.82475 37893 ft 455 kts 307°
2026-04-25 15:45 51.04324 51.74787 37893 ft 455 kts 307°
2026-04-25 15:45 51.07024 51.69599 37890 ft 455 kts 307°
2026-04-25 15:46 51.12394 51.59249 37884 ft 455 kts 307°
2026-04-25 15:46 51.16096 51.51180 37856 ft 453 kts 298°
2026-04-25 15:47 51.19145 51.42378 37862 ft 453 kts 297°
2026-04-25 15:47 51.22149 51.33596 37863 ft 453 kts 297°
2026-04-25 15:48 51.25191 51.24751 37879 ft 454 kts 298°
2026-04-25 15:48 51.28234 51.15913 37864 ft 454 kts 298°
2026-04-25 15:49 51.31261 51.07103 37879 ft 454 kts 298°
2026-04-25 15:49 51.34295 50.98238 37881 ft 454 kts 297°
2026-04-25 15:50 51.37324 50.89351 37884 ft 454 kts 297°
2026-04-25 15:50 51.39845 50.81933 37878 ft 454 kts 298°
2026-04-25 15:51 51.42347 50.74546 37885 ft 453 kts 298°
2026-04-25 15:51 51.45843 50.64193 37885 ft 453 kts 297°
2026-04-25 15:52 51.48839 50.55276 37884 ft 452 kts 297°
2026-04-25 15:52 51.51544 50.46213 37894 ft 451 kts 294°
2026-04-25 15:53 51.54141 50.37084 37873 ft 451 kts 294°
2026-04-25 15:53 51.56755 50.27919 37878 ft 450 kts 294°
2026-04-25 15:54 51.59374 50.18762 37882 ft 449 kts 294°
2026-04-25 15:54 51.61988 50.09602 37868 ft 449 kts 294°
2026-04-25 15:55 51.64572 50.00510 37881 ft 449 kts 294°
2026-04-25 15:55 51.67164 49.91349 37861 ft 449 kts 294°
2026-04-25 15:56 51.69733 49.82232 37863 ft 449 kts 294°
2026-04-25 15:56 51.72311 49.73045 37859 ft 449 kts 294°
2026-04-25 15:57 51.74880 49.63852 37858 ft 449 kts 294°
2026-04-25 15:57 51.77423 49.54721 37864 ft 449 kts 294°
2026-04-25 15:58 51.79980 49.45502 37857 ft 449 kts 294°
2026-04-25 15:58 51.82531 49.36270 37862 ft 449 kts 294°
2026-04-25 15:59 51.85064 49.27063 37881 ft 450 kts 294°
2026-04-25 15:59 51.87603 49.17802 37861 ft 450 kts 294°
2026-04-25 16:00 51.89708 49.10093 37844 ft 450 kts 294°
2026-04-25 16:00 51.92656 48.99252 37867 ft 450 kts 294°
2026-04-25 16:01 51.95156 48.90024 37867 ft 450 kts 294°
2026-04-25 16:01 51.97670 48.80703 37865 ft 449 kts 293°
2026-04-25 16:02 52.00140 48.71449 37865 ft 449 kts 293°
2026-04-25 16:02 52.02622 48.62089 37862 ft 449 kts 293°
2026-04-25 16:03 52.05089 48.52753 37865 ft 449 kts 293°
2026-04-25 16:03 52.07539 48.43452 37859 ft 450 kts 293°
2026-04-25 16:04 52.09998 48.34073 37859 ft 450 kts 293°
2026-04-25 16:04 52.12450 48.24694 37856 ft 450 kts 293°
2026-04-25 16:05 52.14903 48.15368 37845 ft 450 kts 294°
2026-04-25 16:06 52.18761 48.01389 37858 ft 451 kts 294°
2026-04-25 16:06 52.21324 47.92055 37840 ft 451 kts 294°
2026-04-25 16:07 52.23861 47.82731 37811 ft 452 kts 294°
2026-04-25 16:07 52.26404 47.73341 37848 ft 452 kts 294°
2026-04-25 16:08 52.28943 47.63925 37836 ft 452 kts 294°
2026-04-25 16:08 52.31470 47.54523 37835 ft 452 kts 294°
2026-04-25 16:09 52.33978 47.45155 37832 ft 452 kts 294°
2026-04-25 16:09 52.36502 47.35730 37828 ft 451 kts 294°
2026-04-25 16:10 52.39003 47.26355 37829 ft 451 kts 293°
2026-04-25 16:10 52.41503 47.16942 37825 ft 451 kts 293°
2026-04-25 16:11 52.44000 47.07502 37823 ft 451 kts 293°
2026-04-25 16:11 52.46490 46.98044 37819 ft 451 kts 293°
2026-04-25 16:12 52.48961 46.88630 37826 ft 451 kts 293°
2026-04-25 16:12 52.51431 46.79162 37815 ft 451 kts 293°
2026-04-25 16:13 52.53870 46.69719 37813 ft 451 kts 293°
2026-04-25 16:13 52.56324 46.60175 37807 ft 451 kts 292°
2026-04-25 16:14 52.58745 46.50724 37815 ft 452 kts 292°
2026-04-25 16:14 52.61177 46.41201 37813 ft 451 kts 292°
2026-04-25 16:15 52.63568 46.31639 37810 ft 451 kts 290°
2026-04-25 16:15 52.65727 46.21981 37805 ft 450 kts 289°
2026-04-25 16:16 52.67852 46.12256 37811 ft 450 kts 290°
2026-04-25 16:16 52.69980 46.02612 37803 ft 449 kts 290°
2026-04-25 16:17 52.72129 45.92908 37804 ft 449 kts 290°
2026-04-25 16:17 52.74271 45.83202 37790 ft 449 kts 289°
2026-04-25 16:18 52.76386 45.73562 37812 ft 449 kts 289°
2026-04-25 16:18 52.78508 45.63844 37814 ft 449 kts 289°
2026-04-25 16:19 52.80617 45.54147 37818 ft 449 kts 289°
2026-04-25 16:19 52.82724 45.44393 37803 ft 449 kts 289°
2026-04-25 16:20 52.85839 45.29801 37802 ft 449 kts 289°
2026-04-25 16:21 52.88935 45.15208 37791 ft 449 kts 289°
2026-04-25 16:21 52.90997 45.05437 37808 ft 449 kts 289°
2026-04-25 16:22 52.93058 44.95666 37813 ft 449 kts 289°
2026-04-25 16:22 52.95235 44.85924 37805 ft 450 kts 290°
2026-04-25 16:23 52.97421 44.76264 37806 ft 450 kts 290°
2026-04-25 16:23 52.99599 44.66512 37804 ft 449 kts 290°
2026-04-25 16:24 53.01754 44.56776 37800 ft 449 kts 290°
2026-04-25 16:24 53.03890 44.47087 37801 ft 449 kts 290°
2026-04-25 16:25 53.06037 44.37302 37795 ft 448 kts 290°
2026-04-25 16:25 53.08172 44.27534 37799 ft 448 kts 290°
2026-04-25 16:26 53.10283 44.17833 37800 ft 448 kts 289°
2026-04-25 16:26 53.12402 44.08047 37809 ft 448 kts 289°
2026-04-25 16:27 53.14514 43.98249 37808 ft 448 kts 289°
2026-04-25 16:27 53.16603 43.88510 37807 ft 449 kts 289°
2026-04-25 16:28 53.18701 43.78681 37804 ft 448 kts 289°
2026-04-25 16:28 53.20777 43.68909 37802 ft 448 kts 289°
2026-04-25 16:29 53.22854 43.59085 37799 ft 448 kts 289°
2026-04-25 16:29 53.24912 43.49299 37814 ft 448 kts 289°
2026-04-25 16:30 53.26631 43.41095 37817 ft 448 kts 289°
2026-04-25 16:30 53.29017 43.29645 37806 ft 448 kts 289°
2026-04-25 16:31 53.31063 43.19774 37811 ft 448 kts 289°
2026-04-25 16:31 53.33099 43.09908 37805 ft 448 kts 289°
2026-04-25 16:32 53.35125 43.00035 37811 ft 448 kts 289°
2026-04-25 16:32 53.37137 42.90187 37812 ft 448 kts 288°
2026-04-25 16:33 53.39147 42.80297 37800 ft 448 kts 288°
2026-04-25 16:33 53.41136 42.70462 37801 ft 448 kts 288°
2026-04-25 16:34 53.43126 42.60570 37802 ft 448 kts 288°
2026-04-25 16:34 53.45114 42.50645 37793 ft 448 kts 288°
2026-04-25 16:35 53.47000 42.40673 37797 ft 448 kts 286°
2026-04-25 16:35 53.48738 42.30616 37794 ft 448 kts 285°
2026-04-25 16:36 53.50460 42.20594 37797 ft 449 kts 285°
2026-04-25 16:36 53.52208 42.10486 37793 ft 449 kts 286°
2026-04-25 16:37 53.53661 42.02082 37794 ft 450 kts 285°
2026-04-25 16:37 53.55396 41.92007 37796 ft 450 kts 285°
2026-04-25 16:38 53.57132 41.81869 37787 ft 451 kts 285°
2026-04-25 16:38 53.58859 41.71715 37786 ft 451 kts 285°
2026-04-25 16:39 53.60569 41.61605 37779 ft 451 kts 285°
2026-04-25 16:39 53.62278 41.51441 37781 ft 451 kts 285°
2026-04-25 16:40 53.63983 41.41243 37772 ft 451 kts 285°
2026-04-25 16:40 53.65676 41.31052 37777 ft 451 kts 285°
2026-04-25 16:41 53.67353 41.20898 37771 ft 451 kts 285°
2026-04-25 16:41 53.69864 41.05610 37759 ft 450 kts 285°
2026-04-25 16:42 53.72042 40.95707 37766 ft 450 kts 293°
2026-04-25 16:42 53.74580 40.86095 37773 ft 450 kts 293°
2026-04-25 16:43 53.77117 40.76400 37757 ft 451 kts 293°
2026-04-25 16:43 53.79623 40.66684 37729 ft 451 kts 292°
2026-04-25 16:44 53.80886 40.61759 36996 ft 461 kts 292°
2026-04-25 16:44 53.82158 40.56788 36346 ft 459 kts 292°
2026-04-25 16:44 53.83420 40.51845 35701 ft 455 kts 292°
2026-04-25 16:44 53.84653 40.47009 35186 ft 450 kts 292°
2026-04-25 16:45 53.85891 40.42148 34618 ft 445 kts 292°
2026-04-25 16:45 53.87108 40.37352 34101 ft 441 kts 292°
2026-04-25 16:45 53.88313 40.32596 33531 ft 437 kts 292°
2026-04-25 16:45 53.89509 40.27863 32917 ft 433 kts 292°
2026-04-25 16:46 53.90687 40.23193 32371 ft 428 kts 292°
2026-04-25 16:46 53.91850 40.18574 31837 ft 424 kts 292°
2026-04-25 16:46 53.92986 40.14051 31312 ft 419 kts 292°
2026-04-25 16:46 53.93756 40.10984 30942 ft 416 kts 292°
2026-04-25 16:47 53.95249 40.05017 30263 ft 411 kts 291°
2026-04-25 16:47 53.96357 40.00582 29749 ft 407 kts 291°
2026-04-25 16:47 53.97455 39.96171 29155 ft 402 kts 291°
2026-04-25 16:47 53.98539 39.91813 28626 ft 397 kts 292°
2026-04-25 16:48 53.99606 39.87513 28096 ft 391 kts 292°
2026-04-25 16:48 54.00644 39.83322 27585 ft 387 kts 292°
2026-04-25 16:48 54.01682 39.79125 27079 ft 382 kts 292°
2026-04-25 16:48 54.02707 39.74973 26566 ft 378 kts 292°
2026-04-25 16:49 54.03717 39.70873 26077 ft 374 kts 292°
2026-04-25 16:49 54.04715 39.66813 25591 ft 370 kts 292°
2026-04-25 16:49 54.05704 39.62782 25110 ft 366 kts 291°
2026-04-25 16:49 54.06681 39.58795 24640 ft 363 kts 291°
2026-04-25 16:50 54.07639 39.54876 24173 ft 360 kts 291°
2026-04-25 16:50 54.08601 39.50933 23702 ft 357 kts 291°
2026-04-25 16:50 54.09551 39.47035 23248 ft 355 kts 291°
2026-04-25 16:50 54.10493 39.43162 22709 ft 352 kts 291°
2026-04-25 16:51 54.11415 39.39365 22236 ft 349 kts 291°
2026-04-25 16:51 54.12346 39.35523 21776 ft 345 kts 291°
2026-04-25 16:51 54.13245 39.31804 21333 ft 341 kts 291°
2026-04-25 16:51 54.13855 39.29280 21013 ft 339 kts 291°
2026-04-25 16:52 54.15038 39.24374 20440 ft 335 kts 291°
2026-04-25 16:52 54.15924 39.20692 20003 ft 333 kts 291°
2026-04-25 16:52 54.16789 39.17092 19570 ft 330 kts 291°
2026-04-25 16:52 54.17659 39.13468 19139 ft 328 kts 291°
2026-04-25 16:53 54.19380 39.06274 18279 ft 324 kts 290°
2026-04-25 16:53 54.20220 39.02758 17848 ft 323 kts 290°
2026-04-25 16:53 54.21064 38.99219 17381 ft 321 kts 290°
2026-04-25 16:54 54.21906 38.95679 16940 ft 318 kts 290°
2026-04-25 16:54 54.22781 38.92258 16688 ft 306 kts 298°
2026-04-25 16:54 54.24122 38.89479 16455 ft 305 kts 315°
2026-04-25 16:54 54.25868 38.87458 16108 ft 310 kts 328°
2026-04-25 16:55 54.27815 38.85786 15740 ft 316 kts 329°
2026-04-25 16:55 54.29817 38.84131 15353 ft 321 kts 330°
2026-04-25 16:55 54.31835 38.82465 14938 ft 321 kts 330°
2026-04-25 16:55 54.33814 38.80818 14558 ft 319 kts 330°
2026-04-25 16:56 54.35803 38.79147 14166 ft 317 kts 329°
2026-04-25 16:56 54.37772 38.77480 13793 ft 314 kts 329°
2026-04-25 16:56 54.39726 38.75817 13394 ft 313 kts 329°
2026-04-25 16:56 54.41667 38.74160 12980 ft 310 kts 329°
2026-04-25 16:57 54.43595 38.72510 12589 ft 307 kts 329°
2026-04-25 16:57 54.44856 38.71430 12330 ft 306 kts 329°
2026-04-25 16:57 54.47386 38.69260 11859 ft 302 kts 329°
2026-04-25 16:57 54.49264 38.67647 11480 ft 300 kts 329°
2026-04-25 16:58 54.51101 38.66063 11121 ft 298 kts 329°
2026-04-25 16:58 54.52951 38.64467 10770 ft 296 kts 329°
2026-04-25 16:58 54.54790 38.62877 10382 ft 296 kts 329°
2026-04-25 16:58 54.56631 38.61284 10040 ft 296 kts 329°
2026-04-25 16:59 54.58450 38.59711 9904 ft 288 kts 329°
2026-04-25 16:59 54.60215 38.58185 9830 ft 278 kts 329°
2026-04-25 16:59 54.61913 38.56714 9740 ft 269 kts 328°
2026-04-25 16:59 54.63559 38.55284 9621 ft 261 kts 328°
2026-04-25 17:00 54.65170 38.53881 9417 ft 256 kts 328°
2026-04-25 17:00 54.66737 38.52518 9169 ft 252 kts 328°
2026-04-25 17:00 54.68294 38.51161 8893 ft 249 kts 328°
2026-04-25 17:00 54.69832 38.49820 8608 ft 246 kts 328°
2026-04-25 17:01 54.71358 38.48488 8318 ft 244 kts 328°
2026-04-25 17:01 54.72868 38.47170 8029 ft 243 kts 328°
2026-04-25 17:01 54.74383 38.45850 7743 ft 245 kts 328°
2026-04-25 17:01 54.75929 38.44509 7483 ft 252 kts 328°
2026-04-25 17:02 54.77498 38.43147 7184 ft 257 kts 329°
2026-04-25 17:02 54.79109 38.41753 6876 ft 258 kts 329°
2026-04-25 17:02 54.80726 38.40352 6556 ft 257 kts 329°
2026-04-25 17:02 54.82324 38.38963 6263 ft 256 kts 329°
2026-04-25 17:03 54.83885 38.37608 6107 ft 249 kts 329°
2026-04-25 17:03 54.85410 38.36282 5988 ft 241 kts 328°
2026-04-25 17:03 54.86882 38.34991 5873 ft 234 kts 328°
2026-04-25 17:03 54.88342 38.33703 5794 ft 237 kts 328°
2026-04-25 17:04 54.89833 38.32384 5690 ft 242 kts 328°
2026-04-25 17:04 54.91344 38.31048 5582 ft 243 kts 328°
2026-04-25 17:04 54.92836 38.29730 5476 ft 242 kts 328°
2026-04-25 17:04 54.94340 38.28402 5368 ft 241 kts 328°
2026-04-25 17:05 54.95833 38.27082 5245 ft 240 kts 328°
2026-04-25 17:05 54.98795 38.24460 5050 ft 237 kts 328°
2026-04-25 17:05 55.00269 38.23152 4968 ft 237 kts 328°
2026-04-25 17:06 55.01737 38.21847 4853 ft 241 kts 328°
2026-04-25 17:06 55.03245 38.20508 4748 ft 245 kts 328°
2026-04-25 17:06 55.04770 38.19152 4644 ft 245 kts 328°
2026-04-25 17:06 55.06288 38.17803 4532 ft 244 kts 328°
2026-04-25 17:07 55.07802 38.16455 4427 ft 243 kts 328°
2026-04-25 17:07 55.09310 38.15111 4318 ft 243 kts 328°
2026-04-25 17:07 55.10811 38.13773 4206 ft 241 kts 328°
2026-04-25 17:07 55.12279 38.12492 4080 ft 235 kts 333°
2026-04-25 17:08 55.13861 38.11759 4001 ft 236 kts 346°
2026-04-25 17:08 55.15491 38.11308 3906 ft 237 kts 347°
2026-04-25 17:08 55.17112 38.10860 3802 ft 231 kts 347°
2026-04-25 17:08 55.18670 38.10402 3669 ft 220 kts 346°
2026-04-25 17:09 55.20123 38.09958 3573 ft 208 kts 346°
2026-04-25 17:09 55.21539 38.09514 3523 ft 208 kts 346°
2026-04-25 17:09 55.22965 38.09063 3438 ft 206 kts 346°
2026-04-25 17:09 55.24294 38.08315 3315 ft 196 kts 327°
2026-04-25 17:10 55.25456 38.07063 3265 ft 198 kts 324°
2026-04-25 17:10 55.26595 38.05773 3173 ft 195 kts 323°
2026-04-25 17:10 55.27707 38.04462 3151 ft 190 kts 323°
2026-04-25 17:10 55.28780 38.03184 3097 ft 181 kts 322°
2026-04-25 17:11 55.29799 38.01966 2882 ft 174 kts 323°
2026-04-25 17:11 55.30781 38.00789 2639 ft 169 kts 323°
2026-04-25 17:11 55.31755 37.99623 2415 ft 169 kts 323°
2026-04-25 17:11 55.32731 37.98454 2189 ft 170 kts 324°
2026-04-25 17:12 55.33690 37.97307 1927 ft 161 kts 324°
2026-04-25 17:12 55.34583 37.96238 1746 ft 152 kts 324°
2026-04-25 17:12 55.35460 37.95188 1534 ft 154 kts 324°
2026-04-25 17:12 55.36334 37.94138 1308 ft 152 kts 324°
2026-04-25 17:13 55.37199 37.93093 1094 ft 149 kts 325°
2026-04-25 17:13 55.37479 37.92763 1023 ft 148 kts 325°
2026-04-25 17:13 55.38900 37.91074 732 ft 147 kts 324°
2026-04-25 17:13 55.39735 37.90068 575 ft 146 kts 324°
2026-04-25 17:14 55.40495 37.89153 575 ft 114 kts 325°
2026-04-25 17:14 55.41019 37.88524 586 ft 65 kts 326°
2026-04-25 17:14 55.41247 37.88362 592 ft 31 kts 352°
2026-04-25 17:14 55.41357 37.88351 589 ft 10 kts 11°
2026-04-25 17:15 55.41375 37.88452 586 ft 10 kts 128°
2026-04-25 17:15 55.41320 37.88528 587 ft 11 kts 144°
2026-04-25 17:15 55.41256 37.88605 589 ft 12 kts 146°
2026-04-25 17:15 55.41174 37.88703 584 ft 16 kts 146°
2026-04-25 17:16 55.41076 37.88818 583 ft 17 kts 146°
2026-04-25 17:16 55.40977 37.88938 581 ft 17 kts 145°
2026-04-25 17:16 55.40877 37.89060 585 ft 18 kts 146°
2026-04-25 17:16 55.40767 37.89190 579 ft 19 kts 146°
2026-04-25 17:17 55.40691 37.89287 581 ft 13 kts 134°
2026-04-25 17:17 55.40697 37.89424 580 ft 12 kts 57°
2026-04-25 17:17 55.40745 37.89549 581 ft 12 kts 53°
2026-04-25 17:17 55.40812 37.89640 581 ft 12 kts 46°
2026-04-25 17:18 55.40874 37.89790 577 ft 17 kts 55°
2026-04-25 17:18 55.40934 37.89920 576 ft 10 kts 23°
2026-04-25 17:18 55.40986 37.89916 579 ft 7 kts
2026-04-25 17:18 55.41041 37.89997 579 ft 15 kts 51°
2026-04-25 17:19 55.41096 37.90157 578 ft 14 kts 83°
2026-04-25 17:19 55.41047 37.90296 578 ft 13 kts 110°
2026-04-25 17:19 55.41078 37.90443 575 ft 13 kts 57°
2026-04-25 17:19 55.41130 37.90578 577 ft 13 kts 56°
2026-04-25 17:20 55.41181 37.90713 578 ft 13 kts 56°
2026-04-25 17:20 55.41233 37.90846 577 ft 13 kts 56°
2026-04-25 17:20 55.41306 37.90918 578 ft 13 kts 346°
2026-04-25 17:20 55.41374 37.90847 579 ft 9 kts 327°
2026-04-25 17:21 55.41432 37.90822 586 ft 8 kts 359°
2026-04-25 17:21 55.41457 37.90823 584 ft 1 kts
2026-04-25 17:21 55.41458 37.90823 581 ft 0 kts